Regional Weather Roundup
Issued by NWS Cleveland, OH

Home | Current Version | Previous Version | Text Only | Print | Product List | Glossary Off
Versions: 1 2 3 4 5 6 7 8 9 10 11 12 13 14 15 16 17 18 19 20 21 22 23 24 25 26 27 28 29 30 31 32 33 34 35 36 37 38 39 40 41 42 43 44 45 46 47 48 49 50

000
ASUS41 KCLE 050010
RWRCLE
OHIO REGIONAL WEATHER ROUNDUP
NATIONAL WEATHER SERVICE CLEVELAND, OH
700 PM EST WED MAR 04 2015

NOTE: "FAIR" INDICATES FEW OR NO CLOUDS BELOW 12,000 FEET WITH NO
SIGNIFICANT WEATHER AND/OR OBSTRUCTIONS TO VISIBILITY.

OHZ001>008-015>018-024>027-034-035-043-044-050100-
   NORTHWEST OHIO

CITY           SKY/WX    TMP DP  RH WIND       PRES   REMARKS
DEFIANCE       CLOUDY    22  10  60 NW20      30.11R WCI   7
FINDLAY        CLOUDY    27  15  61 NW16G23   30.06R WCI  15
TOLEDO EXPRESS CLOUDY    24  12  60 W13       30.07R WCI  12
TOLEDO EXEC    CLOUDY    27  14  58 W20       30.07R WCI  13
LIMA           CLOUDY    26  17  68 NW17      30.06R WCI  13
$$

OHZ009>014-019>023-028>033-038-089-050100-
   NORTHEAST OHIO

CITY           SKY/WX    TMP DP  RH WIND       PRES   REMARKS
CLE-HOPKINS    CLOUDY    30  19  63 NW18      30.03R WCI  18
CLE-LAKEFRONT  CLOUDY    31  25  78 W14       30.01R WCI  21
CUY CO. ARPT   CLOUDY    34  25  69 W12G22    30.00R WCI  25
LORAIN-ELYRIA  CLOUDY    29  15  56 NW16G25   30.03R WCI  17
ASHTABULA      CLOUDY    31  21  66 W9        29.97S WCI  23
AKRON-CANTON   CLOUDY    32  23  69 NW10      29.98R WCI  24
WOOSTER        CLOUDY    30  24  78 W7        30.00R WCI  23
MANSFIELD      CLOUDY    29  21  72 W9        30.01R WCI  20
YOUNGSTOWN     CLOUDY    32  24  72 NW7       29.96R WCI  26
$$

OHZ042-051>053-060>062-070>072-077>081-050100-
  SOUTHWEST OHIO

CITY           SKY/WX    TMP DP  RH WIND       PRES   REMARKS
CINC-COVINGTON LGT SNOW  29  26  89 NW14      30.09R VSB 3/4 WCI  18
CINC-LUNKEN    LGT SNOW  30  28  92 NW9G18    30.12R VSB 3/4 WCI  22
HAMILTON       LGT SNOW  28  26  92 NW10      30.12R FOG     WCI  19
DAYTON         LGT SNOW  28  24  85 NW9       30.09R VSB 1   WCI  19
WRIGHT-PAT AFB LGT SNOW  28  25  86 NW12      30.09R FOG     WCI  18
DAYTON GENERAL LGT SNOW  28  26  92 NW12      30.09R VSB 1   WCI  18
WILMINGTON     LGT SNOW  29  25  85 NW13      30.07R VSB 3/4 WCI  19
$$

OHZ036-037-039>041-045>050-054>059-063>069-073>076-082>088-050100-
  CENTRAL AND SOUTHEAST OHIO

CITY           SKY/WX    TMP DP  RH WIND       PRES   REMARKS
COLUMBUS       LGT SNOW  30  27  86 NW10      30.05R FOG     WCI  21
OSU AIRPORT    LGT SNOW  30  26  85 NW13      30.04R FOG     WCI  20
BOLTON FIELD   LGT SNOW  30  28  93 W10       30.06R VSB 1   WCI  21
RICKENBACK AFB LGT SNOW  31  29  92 NW7       30.05R VSB 1   WCI  24
NEWARK         LGT SNOW  32  28  85 NW8       30.03R FOG     WCI  25
MARION         CLOUDY    30  20  66 NW16      30.05R WCI  19
LANCASTER      LGT SNOW  32  30  92 NW10      30.05R FOG     WCI  24
ZANESVILLE     LGT SNOW  31  28  89 NW10      30.03R FOG     WCI  22
NEW PHILLY     LGT SNOW  35  26  69 NW8       30.01R WCI  29
$$



USA.gov is the U.S. government's official web portal to all federal, state and local government web resources and services.